DW8400 Weather Reports


time (UTC)temp
F
wind
direction
speed
knots
gust
knots
rain 1hr
in
rain 24hr
in
rain mn
in
humidity
%
barometer
mb
20260505040054 63 291 0.0 0.9 0.00 0.00 0.00 79 1008.2
20260505035554 63 291 0.0 0.9 0.00 0.00 0.00 80 1008.2
20260505035057 63 274 0.0 0.0 0.00 0.00 0.00 79 1008.3
20260505034553 63 274 0.0 0.0 0.00 0.00 0.00 79 1008.3
20260505034053 64 274 0.0 0.0 0.00 0.00 0.00 79 1008.4
20260505033553 64 273 0.0 0.0 0.00 0.00 0.00 79 1008.3
20260505033053 64 273 0.0 0.0 0.00 0.00 0.00 78 1008.3
20260505032554 64 273 0.0 0.0 0.00 0.00 0.00 79 1008.4
20260505032051 64 273 0.0 0.0 0.00 0.00 0.00 77 1008.3
20260505031600 65 273 0.0 0.0 0.00 0.00 0.00 76 1008.2
20260505031057 65 273 0.0 0.9 0.00 0.00 0.00 76 1008.2
20260505030551 66 273 0.0 0.9 0.00 0.00 0.00 76 1008.1
20260505030051 66 273 0.0 1.7 0.00 0.00 0.00 75 1008.0
20260505025551 65 262 0.0 1.7 0.00 0.00 0.00 77 1007.9
20260505025054 64 282 0.0 0.0 0.00 0.00 0.00 78 1007.8
20260505024552 64 282 0.0 0.0 0.00 0.00 0.00 79 1007.8
20260505024052 64 282 0.0 0.9 0.00 0.00 0.00 79 1007.8
20260505023552 64 281 0.0 0.9 0.00 0.00 0.00 79 1007.7
20260505023057 65 281 0.0 0.9 0.00 0.00 0.00 78 1007.8
20260505022550 64 281 0.0 0.9 0.00 0.00 0.00 78 1007.7
20260505022050 65 281 0.0 0.9 0.00 0.00 0.00 79 1007.6
20260505021550 65 281 0.0 0.9 0.00 0.00 0.00 79 1007.6
20260505021049 65 281 0.0 0.9 0.00 0.00 0.00 78 1007.6
20260505020549 65 281 0.0 0.9 0.00 0.00 0.00 77 1007.5
20260505020052 66 281 0.0 0.9 0.00 0.00 0.00 75 1007.5
20260505015553 66 281 0.0 0.9 0.00 0.00 0.00 74 1007.3
20260505015049 67 281 0.0 0.9 0.00 0.00 0.00 73 1007.3
20260505014549 67 281 0.0 0.9 0.00 0.00 0.00 73 1007.3
20260505014048 67 281 0.0 0.9 0.00 0.00 0.00 72 1007.3
20260505013549 68 281 0.0 0.9 0.00 0.00 0.00 71 1007.2
20260505013049 69 281 0.0 0.9 0.00 0.00 0.00 70 1007.3
20260505012548 70 281 0.0 0.9 0.00 0.00 0.00 66 1007.1
20260505012048 71 262 0.0 2.6 0.00 0.00 0.00 64 1007.1
20260505011548 71 262 0.0 1.7 0.00 0.00 0.00 63 1007.1
20260505011050 72 262 0.0 1.7 0.00 0.00 0.00 63 1007.2
20260505010547 72 262 0.0 2.6 0.00 0.00 0.00 61 1007.0
20260505010048 73 245 0.0 2.6 0.00 0.00 0.00 61 1007.0
20260505005548 73 264 0.0 2.6 0.00 0.00 0.00 61 1007.0
20260505005048 73 211 0.0 2.6 0.00 0.00 0.00 60 1007.0
20260505004547 73 253 0.0 2.6 0.00 0.00 0.00 60 1007.1
20260505004047 74 141 0.9 2.6 0.00 0.00 0.00 59 1007.0
20260505003546 74 113 0.0 3.5 0.00 0.00 0.00 59 1006.9
20260505003046 74 135 0.9 4.3 0.00 0.00 0.00 59 1006.9
20260505002548 74 200 0.9 4.3 0.00 0.00 0.00 58 1006.9
20260505002046 75 174 0.9 4.3 0.00 0.00 0.00 57 1007.0
20260505001552 75 210 0.9 4.3 0.00 0.00 0.00 56 1007.0
20260505001045 75 253 0.9 6.1 0.00 0.00 0.00 56 1007.0
20260505000545 75 247 1.7 6.1 0.00 0.00 0.00 56 1007.0
20260505000053 76 241 0.9 5.2 0.00 0.00 0.00 55 1007.0
20260504235545 76 165 0.9 7.8 0.00 0.00 0.00 55 1007.0
20260504235045 76 257 1.7 9.6 0.00 0.00 0.00 54 1007.1
20260504234549 76 237 0.9 9.6 0.00 0.00 0.00 55 1007.2
20260504234044 76 181 0.9 6.1 0.00 0.00 0.00 55 1007.1
20260504233542 76 262 1.7 11.3 0.00 0.00 0.00 54 1007.1
20260504233042 76 243 2.6 11.3 0.00 0.00 0.00 54 1007.3
20260504232541 77 191 3.5 7.0 0.00 0.00 0.00 53 1007.3
20260504232040 77 250 2.6 7.8 0.00 0.00 0.00 54 1007.5
20260504231555 77 208 2.6 9.6 0.00 0.00 0.00 53 1007.4
20260504231039 77 246 1.7 10.4 0.00 0.00 0.00 52 1007.5
20260504230539 77 192 2.6 10.4 0.00 0.00 0.00 53 1007.5
20260504230039 77 217 3.5 8.7 0.00 0.00 0.00 53 1007.6
20260504225539 78 143 2.6 7.0 0.00 0.00 0.00 52 1007.6
20260504225038 78 155 2.6 14.8 0.00 0.00 0.00 52 1007.6
20260504224540 78 149 4.3 10.4 0.00 0.00 0.00 51 1007.7
20260504224038 79 296 0.9 4.3 0.00 0.00 0.00 51 1007.6
20260504223538 79 277 0.0 5.2 0.00 0.00 0.00 51 1007.6
20260504223038 79 256 0.9 7.0 0.00 0.00 0.00 50 1007.7
20260504222538 79 250 1.7 9.6 0.00 0.00 0.00 51 1007.7
20260504222037 79 222 2.6 9.6 0.00 0.00 0.00 49 1007.8
20260504221538 80 150 3.5 9.6 0.00 0.00 0.00 48 1007.8
20260504221035 81 211 2.6 9.6 0.00 0.00 0.00 47 1007.8
20260504220535 81 315 0.0 4.3 0.00 0.00 0.00 50 1007.9
20260504220036 80 296 0.0 5.2 0.00 0.00 0.00 49 1007.9
20260504215534 80 254 1.7 9.6 0.00 0.00 0.00 48 1008.0
20260504215036 80 300 2.6 9.6 0.00 0.00 0.00 47 1008.0
20260504214534 81 135 2.6 8.7 0.00 0.00 0.00 48 1008.0
20260504214034 81 154 2.6 8.7 0.00 0.00 0.00 48 1008.0
20260504213533 81 212 3.5 7.8 0.00 0.00 0.00 48 1008.1
20260504213032 81 142 2.6 9.6 0.00 0.00 0.00 49 1008.1
20260504212532 81 167 4.3 7.8 0.00 0.00 0.00 48 1008.2
20260504212030 81 291 0.9 11.3 0.00 0.00 0.00 48 1008.3
20260504211531 80 271 5.2 11.3 0.00 0.00 0.00 48 1008.3
20260504211028 81 184 4.3 14.8 0.00 0.00 0.00 48 1008.4
20260504210528 81 260 5.2 14.8 0.00 0.00 0.00 47 1008.5
20260504210036 81 113 1.7 9.6 0.00 0.00 0.00 50 1008.6
20260504205527 81 227 2.6 10.4 0.00 0.00 0.00 47 1008.6
20260504205026 80 261 1.7 12.2 0.00 0.00 0.00 48 1008.7
20260504204526 80 229 5.2 12.2 0.00 0.00 0.00 48 1008.8
20260504204025 81 241 4.3 13.0 0.00 0.00 0.00 48 1008.7
20260504203525 81 213 6.1 13.0 0.00 0.00 0.00 46 1008.8
20260504203031 82 253 0.9 13.0 0.00 0.00 0.00 48 1008.8
20260504202522 81 248 1.7 13.0 0.00 0.00 0.00 48 1009.0
20260504202021 81 348 1.7 9.6 0.00 0.00 0.00 48 1009.1
20260504201521 81 149 1.7 9.6 0.00 0.00 0.00 50 1009.2
20260504201021 81 307 3.5 7.8 0.00 0.00 0.00 47 1009.5
20260504200520 81 180 0.0 12.2 0.00 0.00 0.00 51 1009.4
20260504200021 81 43 3.5 12.2 0.00 0.00 0.00 48 1009.6
20260504195517 80 290 3.5 13.0 0.00 0.00 0.00 48 1009.5
20260504195017 80 175 3.5 13.0 0.00 0.00 0.00 47 1009.7
20260504194531 81 266 3.5 12.2 0.00 0.00 0.00 47 1009.7
20260504194016 80 149 6.1 16.5 0.00 0.00 0.00 47 1009.8
20260504193517 80 144 3.5 16.5 0.00 0.00 0.00 47 1009.8
20260504193018 81 151 4.3 11.3 0.00 0.00 0.00 48 1009.9
20260504192513 80 295 3.5 11.3 0.00 0.00 0.00 47 1010.0
20260504192013 80 350 2.6 10.4 0.00 0.00 0.00 49 1010.0
20260504191512 80 221 3.5 11.3 0.00 0.00 0.00 48 1010.3
20260504191013 80 163 7.0 11.3 0.00 0.00 0.00 47 1010.2
20260504190512 80 258 1.7 13.0 0.00 0.00 0.00 48 1010.4
20260504190011 80 142 4.3 13.9 0.00 0.00 0.00 48 1010.2
20260504185513 79 130 5.2 13.9 0.00 0.00 0.00 48 1010.4
20260504185011 79 196 4.3 18.2 0.00 0.00 0.00 47 1010.3
20260504184513 80 268 8.7 18.2 0.00 0.00 0.00 48 1010.4
20260504184010 80 236 2.6 15.6 0.00 0.00 0.00 47 1010.5
20260504183510 80 132 4.3 15.6 0.00 0.00 0.00 50 1010.5
20260504183009 80 149 1.7 13.9 0.00 0.00 0.00 49 1010.6
20260504182509 80 293 5.2 13.9 0.00 0.00 0.00 50 1010.7
20260504182007 80 227 2.6 15.6 0.00 0.00 0.00 51 1010.7
20260504181506 79 226 3.5 15.6 0.00 0.00 0.00 50 1010.7
20260504181008 79 217 1.7 10.4 0.00 0.00 0.00 50 1010.9
20260504180505 79 146 4.3 12.2 0.00 0.00 0.00 47 1010.9
20260504180012 79 178 3.5 13.0 0.00 0.00 0.00 46 1011.0
20260504175504 79 263 4.3 14.8 0.00 0.00 0.00 48 1011.1
20260504175005 79 149 4.3 12.2 0.00 0.00 0.00 48 1011.2
20260504174503 79 220 3.5 14.8 0.00 0.00 0.00 50 1011.3
20260504174003 79 340 6.1 14.8 0.00 0.00 0.00 47 1011.4
20260504173502 79 151 4.3 13.9 0.00 0.00 0.00 50 1011.5
20260504173000 79 316 1.7 10.4 0.00 0.00 0.00 51 1011.7
20260504172559 79 107 2.6 10.4 0.00 0.00 0.00 47 1011.7
20260504172058 79 298 1.7 9.6 0.00 0.00 0.00 49 1011.8
20260504171558 78 221 3.5 14.8 0.00 0.00 0.00 47 1011.8
20260504171057 78 326 2.6 14.8 0.00 0.00 0.00 49 1012.0
20260504170556 78 203 2.6 17.4 0.00 0.00 0.00 48 1011.9
20260504151042 74 310 0.9 7.8 0.00 0.00 0.00 59 1012.7
20260504150545 74 107 0.9 7.8 0.00 0.00 0.00 57 1012.8
20260504141032 70 149 0.9 6.1 0.00 0.00 0.00 66 1013.1
20260504140529 70 305 0.9 6.1 0.00 0.00 0.00 65 1013.1
20260504130517 65 264 0.0 4.3 0.00 0.00 0.00 77 1013.0
20260504110510 53 304 0.0 0.0 0.00 0.00 0.00 97 1012.1
20260504100503 53 304 0.0 0.9 0.00 0.00 0.00 96 1012.5
20260504081549 56 304 0.0 0.9 0.00 0.00 0.00 90 1012.8
20260504081048 57 304 0.0 0.9 0.00 0.00 0.00 90 1012.7
20260504080547 57 304 0.0 0.9 0.00 0.00 0.00 89 1012.8
20260504050519 65 274 0.0 0.9 0.00 0.00 0.00 70 1013.7
20260504050017 65 276 0.0 0.9 0.00 0.00 0.00 70 1013.6
20260504045515 65 267 0.0 1.7 0.00 0.00 0.00 69 1013.7
20260504045015 66 264 0.0 1.7 0.00 0.00 0.00 69 1013.6
20260504044516 66 271 0.0 0.9 0.00 0.00 0.00 69 1013.6
20260504044017 66 271 0.0 0.9 0.00 0.00 0.00 69 1013.5
20260504043519 66 270 0.0 0.9 0.00 0.00 0.00 69 1013.5
20260504043016 66 272 0.0 1.7 0.00 0.00 0.00 68 1013.5
20260504042514 66 250 0.0 2.6 0.00 0.00 0.00 68 1013.6
20260504042014 66 235 0.0 4.3 0.00 0.00 0.00 69 1013.7
20260504041515 66 270 0.0 4.3 0.00 0.00 0.00 69 1013.7
20260504041016 66 199 0.9 4.3 0.00 0.00 0.00 70 1013.8